Location: Unspecified
(0.0000°N, 0.0000°E)
Time: 06:33:44
(UTC+00:00)

Kosmos-648 - Pass Details

Date: 09 July 2022
Orbit: 1437 x 1489 km, 74.0° (Epoch: 16 August)

Event Time Altitude Azimuth Distance (km) Brightness Sun altitude
Rises 20:09:58 0° 338° (NNW) 4,602 ? -28.6°
Reaches altitude 10° 20:12:57 10° 334° (NNW) 3,623 ? -29.3°
Maximum altitude 20:21:31 56° 258° (WSW) 1,719 ? -31.2°
Enters shadow 20:27:03 24° 190° (S) 2,688 ? -32.4°
